Location: Nied?wied?
(53.3665°N, 14.8184°E)
Time: 23:28:16
(UTC+00:00)

USA 308 - Pass Details

Date: 03 March 2021
Orbit: 571 x 574 km, 54.0° (Epoch: 10 April)

Event Time Altitude Azimuth Distance (km) Brightness Sun altitude
Rises 18:27:47 0° 271° (W) 2,780 8.1 -16.4°
Reaches altitude 10° 18:30:02 10° 273° (W) 1,882 6.8 -16.7°
Maximum altitude 18:34:19 81° 359° (N) 586 2.9 -17.3°
Enters shadow 18:35:59 37° 84° (E) 904 3.4 -17.6°
